STARLINK-30096

decayed
NORAD ID: 56286 Int'l Des: 2023-056 Owner: SPXS Country: US Constellation: starlink
LEOCIRCULAR

关于 STARLINK-30096

正在加载描述...

高度历史

Altitude vs Time

uPlot chart will show altitude changes over time

两行轨道根数

1 56286U 23056A 23129.52385935 .02613538 10751-1 24326-2 0 9992
2 56286 42.9937 79.4119 0008722 205.8111 154.2533 16.13831722 4439
Epoch: May 9, 2023 • Age: 20653 hours

当前状态

Position data unavailable
发射日期 Apr 19, 2023
运行时间 2.4 years
衰减日期 May 9, 2023
类型 internet

技术详情

分类 Payload
质量 730.00 kg
干质量 700.00 kg
总质量 730.00 kg
长度 0.30 m
直径 4.10 m
跨度 29.00 m
形状 Box + pan
制造商 SPXS
平台类型 Starlink V2M
阶段状态 Reentered
所有者/国家 SPXS/US

大型星座

Loading constellations...